Regional Weather Roundup
Issued by NWS

Home | Current Version | Previous Version | Graphics & Text | Print | Product List | Glossary On
Versions: 1 2 3 4 5 6 7 8 9 10 11 12 13 14 15 16 17 18 19 20 21 22 23 24 25 26 27 28 29 30 31 32 33 34 35 36 37 38 39 40 41 42 43 44 45 46 47 48 49 50
000
ASUS45 KBOU 200407
RWRCO

WEATHER ROUNDUP FOR COLORADO
NATIONAL WEATHER SERVICE DENVER/BOULDER CO
1000 PM MDT TUE AUG 19 2014

NOTE: "FAIR" INDICATES FEW OR NO CLOUDS BELOW 12000 FEET WITH NO
SIGNIFICANT WEATHER AND/OR OBSTRUCTIONS TO VISIBILITY.

COZ001>005-013-030-031-200500-
...NORTHWEST COLORADO...

CITY           SKY/WX    TMP DP  RH WIND       PRES   REMARKS
CRAIG          LGT RAIN  64  51  62 S14       30.03R
HAYDEN         CLOUDY    61  48  63 S3        30.07R
MEEKER         LGT RAIN  58  54  86 NE5       30.08R
MOUNT WERNER   NOT AVBL
STEAMBOAT SPGS CLOUDY    57  53  88 E9        30.09R
WALDEN         CLOUDY    54  50  87 SE3       30.15R
$$

COZ006>008-011-200500-
...WEST CENTRAL VALLEYS...

CITY           SKY/WX    TMP DP  RH WIND       PRES   REMARKS
GRAND JUNCTION CLOUDY    62  60  93 S3        29.98S
MONTROSE       CLOUDY    63  59  87 NW3       30.06R
EAGLE          CLOUDY    57  55  94 W7        30.13R
RIFLE          CLOUDY    60  58  92 E8        30.06R
DELTA          RAIN      66  60  82 NE8       30.02S
NUCLA          CLOUDY    64  52  63 E5        30.08S
$$

COZ017>023-064>068-200500-
...SOUTHWEST COLORADO...

CITY           SKY/WX    TMP DP  RH WIND       PRES   REMARKS
DURANGO        CLOUDY    65  49  56 E8        30.11R
CORTEZ         CLOUDY    63  58  83 CALM      30.08R
PAGOSA SPRINGS LGT RAIN  55  54  98 N12G17    30.21F
TELLURIDE      CLOUDY    55  52  88 SW8       30.23S
WOLF CREEK PAS NOT AVBL
$$

COZ009-010-012-014-032>034-037-058>063-200500-
...CENTRAL COLORADO...

CITY           SKY/WX    TMP DP  RH WIND       PRES   REMARKS
ASPEN          LGT RAIN  57  51  80 CALM      30.17R
BUENA VISTA    CLOUDY    58  51  76 NE6       30.15R
COPPER MTN     CLOUDY    54  37  54 S14       30.43R
BERTHOUD PASS  MOCLDY    43  41  93 MISG      30.47R
COTTONWOOD PAS CLOUDY    57  45  62 W8        30.28S
GUNNISON       CLOUDY    61  48  63 CALM      30.16R
KREMMLING      LGT RAIN  59  46  63 CALM      30.14R
LEADVILLE      CLOUDY    50  43  77 CALM      30.26R
MONARCH PASS   CLOUDY    46  39  76 W22       30.53R
SALIDA         CLOUDY    60  51  71 CALM      30.19S
SUNLIGHT       DRZL/FOG  48  46  93 CALM      30.34S VSB 3/4
WILKERSON PASS CLOUDY    50  36  57 S6        30.40S
$$

COZ069>075-200500-
...SAN LUIS VALLEY/SANGRE DE CRISTO MOUNTAINS...

CITY           SKY/WX    TMP DP  RH WIND       PRES   REMARKS
ALAMOSA        CLOUDY    63  43  48 SW7       30.12R
LA VETA PASS   CLOUDY    57  37  47 S6        30.31S
SAGUACHE       CLOUDY    66  41  39 N9        30.14R
$$

COZ035-036-038>040-200500-
...NORTHERN COLORADO FRONT RANGE...

CITY           SKY/WX    TMP DP  RH WIND       PRES   REMARKS
DENVER INTL AP MOCLDY    66  56  70 W6        29.93S
DMNS CITY PARK   N/A     65  55  69 SE1       29.92S
AURORA         MOCLDY    64  56  77 SE7       29.96S
FRONT RANGE AP PTCLDY    66  59  77 S6        29.95S
ERIE MUNI ARPT PTCLDY    65  50  59 CALM      29.92R
BOULDER MUN AP PTCLDY    66  52  59 CALM      29.93R
CENTENNIAL     MOCLDY    64  54  69 SE5       29.97R
BROOMFIELD     MOCLDY    70  50  49 VRB5      29.96R
FORT COLLINS   MOCLDY    70  50  49 CALM      29.93S
LONGMONT       MOCLDY    68  53  58 CALM      29.93S
$$

COZ041-046-047-076>085-087-088-200500-
...PIKES PEAK/PALMER DIVIDE AND SOUTHERN FOOTHILLS...

CITY           SKY/WX    TMP DP  RH WIND       PRES   REMARKS
COLO. SPRINGS  CLOUDY    64  50  60 N10       30.00R
A. F. ACADEMY  CLOUDY    60  51  71 N7        30.02R
ELLICOTT       CLOUDY    66  47  50 E14       29.98F
FALCON         CLOUDY    63  47  56 CALM      30.06R
FORT CARSON    CLOUDY    64  52  63 N8        29.97R
LIMON          MOCLDY    66  48  52 S3        29.95S
MONUMENT HILL  MOCLDY    59  46  63 S6        30.05R
TRINIDAD       MOCLDY    70  49  47 SE5       29.98S
$$

COZ042>045-048>051-090-091-200500-
...NORTHEAST COLORADO...

CITY           SKY/WX    TMP DP  RH WIND       PRES   REMARKS
GREELEY ARPT   PTCLDY    64  50  59 CALM      29.90S
AKRON          CLOUDY    66  58  75 E7        29.90R
BURLINGTON     CLOUDY    77  48  35 S8        29.87R
WRAY             N/A     68  63  84 CALM      29.83F
STERLING       CLOUDY    68  63  83 NE8       29.84F
HOLYOKE        NOT AVBL
FORT MORGAN    CLOUDY    67  54  62 E7        29.91R
$$

COZ086-089-092>099-200500-
...SOUTHEAST COLORADO...

CITY           SKY/WX    TMP DP  RH WIND       PRES   REMARKS
PUEBLO         CLOUDY    76  51  41 NW5       29.88R
LA JUNTA       MOCLDY    76  53  44 NW9       29.86R
LAMAR          PTCLDY    79  48  33 S15       29.81R
SPRINGFIELD      N/A     76  55  48 S16       29.91R
$$


USA.gov is the U.S. government's official web portal to all federal, state and local government web resources and services.